Regional Weather Roundup
Issued by NWS

Home | Current Version | Previous Version | Text Only | Print | Product List | Glossary On
Versions: 1 2 3 4 5 6 7 8 9 10 11 12 13 14 15 16 17 18 19 20 21 22 23 24 25 26 27 28 29 30 31 32 33 34 35 36 37 38 39 40 41 42 43 44 45 46 47 48 49 50
000
ASUS44 KOUN 180410
RWROK

WEATHER ROUNDUP FOR OKLAHOMA
NATIONAL WEATHER SERVICE NORMAN OK
1000 PM CST WED DEC 17 2014

NOTE: "FAIR" INDICATES FEW OR NO CLOUDS BELOW 12,000 FEET WITH NO
      SIGNIFICANT WEATHER AND/OR OBSTRUCTIONS TO VISIBILITY.

OKZ001>007-009>012-014-015-017-180500-
NORTHWEST OKLAHOMA AND THE PANHANDLE

CITY           SKY/WX    TMP DP  RH WIND       PRES   REMARKS
GAGE           CLOUDY    36  35  96 S8        30.07R WCI  30
ENID/WOODRING  CLOUDY    36  36 100 E8        30.14F FOG     WCI  29
$$

OKZ016-021>023-033>039-044-045-180500-
SOUTHWEST OKLAHOMA

CITY           SKY/WX    TMP DP  RH WIND       PRES   REMARKS
LAWTON/REGL    CLOUDY    39  37  92 SE8       30.14R WCI  33
LAWTON/FT SILL CLOUDY    39  39 100 S8        30.12S WCI  33
FREDERICK      CLOUDY    40  38  93 SE10      30.10S FOG     WCI  33
CLINTON        LGT RAIN  38  36  92 S12       30.10S VSB 1/4 WCI  30
HOBART         CLOUDY    39  38  96 S9        30.12R FOG     WCI  33
ALTUS AFB      CLOUDY    39  39 100 SE9       30.12R WCI  33
$$

OKZ018>020-024>031-180500-
CENTRAL OKLAHOMA

CITY           SKY/WX    TMP DP  RH WIND       PRES   REMARKS
OKLAHOMA CITY  DRIZZLE   38  36  92 SE12      30.12F FOG     WCI  30
OKC/WILEY POST CLOUDY    38  36  92 SE12      30.13F FOG     WCI  30
OKC/TINKER AFB CLOUDY    37  36  93 SE6       30.13F FOG     WCI  33
STILLWATER     CLOUDY    36  34  92 E8        30.17F FOG     WCI  30
GUTHRIE        MIX PCPN  37  36  96 SE7       30.15F FOG     WCI  32
$$

OKZ008-013-054>072-180500-
NORTHEAST OKLAHOMA

CITY           SKY/WX    TMP DP  RH WIND       PRES   REMARKS
TULSA          CLOUDY    36  35  96 SE7       30.21R FOG     WCI  30
TULSA/JONES    CLOUDY    37  35  92 SE7       30.20R WCI  32
PONCA CITY     CLOUDY    35  32  88 E8        30.18S FOG     WCI  29
BARTLESVILLE   CLOUDY    32  32 100 CALM      30.24R FOG
MUSKOGEE       CLOUDY    36  34  92 SE14      30.20F WCI  27
$$

OKZ032-040>043-046>053-073>077-180500-
SOUTH CENTRAL/SOUTHEAST OKLAHOMA

CITY           SKY/WX    TMP DP  RH WIND       PRES   REMARKS
ARDMORE/DWNTWN CLOUDY    37  36  93 SE6       30.17S WCI  33
MCALESTER      CLOUDY    38  36  92 SE8       30.17F WCI  32
$$



USA.gov is the U.S. government's official web portal to all federal, state and local government web resources and services.